Tracking 18624 objects as of 26-April-2017
HD Live streaming from Space Station
objects crossing your sky now

DELTA 1 R/B

Track DELTA 1 R/B now!
10-day predictions


NORAD ID: 4251
Int'l Code: 1969-101B
Perigee: 347.7 km
Apogee: 17,736.5 km
Inclination: 27.8 °
Period: 317.4 minutes
Semi major axis: 15413 km
RCS: 1.8664 m2 (large)
Launch date: November 22, 1969
Source: United States (US)
Launch site: AIR FORCE EASTERN TEST RANGE (AFETR)

Note: This is a ROCKET BODY
Your satellite tracking list
Your tracking list is empty





NASA's NSSDC Master Catalog

Two Line Element Set (TLE):
1  4251U 69101B   17114.15361114 +.00000851 +00000-0 +28778-3 0  9994
2  4251 027.7577 077.4948 5640939 249.1610 043.7705 04.53699869526061
Source of the keplerian elements: AFSPC